Dewpoint
55 58 59 59 58 54 52 50 48 46 45 43 42 42 42 42 41 42 41 42 41 42 43 43 42 42 40 39 38 37 35 35 38 32 34 38 43 37 41 44 43 40 39
39 47 56 58 57 54 52 49 48 46 44 43 43 42 42 41 41 41 40 40 41 41 42 43 42 42 41 39 38 37 35 35 38 34 32 27 33 34 37 44 44 37 37
33 35 47 55 55 53 51 49 47 45 45 43 42 42 42 41 40 39 39 39 41 42 42 43 42 42 42 40 38 38 36 34 36 37 33 28 27 34 34 36 38 38 36
33 33 43 50 54 52 50 48 46 45 44 43 41 40 39 39 40 39 39 39 39 41 42 43 43 43 42 41 39 39 38 36 34 36 37 37 36 32 29 35 37 36 35
26 28 42 48 51 49 48 47 46 45 44 43 41 40 39 39 39 40 39 39 38 41 42 43 43 43 43 42 41 40 39 38 36 36 36 36 37 37 35 30 32 35 35
22 27 47 50 49 47 47 46 45 44 44 43 41 39 38 38 38 38 38 38 37 38 40 42 42 43 43 42 42 41 39 39 38 38 38 37 35 34 34 33 34 34 34
25 37 45 48 48 46 46 45 45 44 44 42 41 40 39 38 37 38 37 36 36 37 38 41 41 42 42 43 42 41 40 39 39 38 38 39 38 38 37 36 35 34 35
31 39 47 48 47 46 45 45 44 44 43 42 41 40 40 39 38 37 37 36 37 37 38 40 41 41 41 42 41 40 40 40 39 38 38 39 39 39 38 37 35 33 33
36 39 45 46 45 45 45 45 44 44 43 42 42 41 42 41 40 39 39 38 37 37 38 39 40 38 38 38 39 38 37 38 38 37 37 37 38 38 38 38 37 35 32
38 40 42 44 44 44 44 44 44 43 43 42 42 42 42 42 41 40 38 38 37 36 36 36 36 36 35 34 34 33 33 33 33 33 32 32 34 34 35 36 37 37 36
38 39 40 40 41 41 42 41 41 41 42 42 42 42 42 41 39 38 36 35 35 34 34 34 33 33 33 32 32 31 31 30 30 31 31 31 31 31 31 32 33 33 35
37 37 37 38 38 38 38 38 39 39 39 39 39 38 37 37 36 36 36 36 36 36 36 36 36 35 34 34 33 33 33 33 32 32 30 29 32 31 33 32 32 32 32
36 36 36 36 36 36 36 37 37 37 36 36 36 36 35 35 34 34 33 31 28 26 25 26 30 30 29 30 32 31 29 29 29 29 27 27 29 27 30 32 33 34 34
35 35 35 35 35 35 35 35 34 34 33 33 33 32 30 29 27 26 25 24 24 22 22 22 22 24 26 30 30 30 30 29 29 29 28 28 28 27 30 31 33 34 33
34 34 34 34 34 33 33 32 31 30 29 28 26 24 23 22 21 20 20 20 20 20 19 18 18 19 20 26 26 26 26 26 26 26 26 28 30 31 30 28 28 28 29
34 33 34 33 32 31 30 28 27 25 23 22 21 20 19 17 17 17 17 17 17 17 17 17 17 17 17 24 25 25 25 25 24 23 25 26 27 27 29 28 29 29 27
33 33 33 32 30 28 26 24 22 21 20 19 19 18 18 17 17 18 17 17 16 17 17 17 17 17 17 24 24 24 24 23 23 24 24 25 25 26 25 27 29 31 30
33 33 32 30 28 24 22 21 19 18 18 18 18 19 19 18 18 17 17 17 17 16 16 17 18 17 17 24 24 24 23 22 22 22 22 23 24 25 28 28 29 30 28
33 32 31 28 23 21 19 16 16 17 18 18 18 19 19 18 17 17 17 17 17 17 17 18 18 17 19 23 24 23 23 22 22 23 23 24 25 26 26 26 26 27 26
32 28 25 22 19 17 14 14 15 16 17 18 19 19 18 17 17 17 17 17 17 17 18 18 18 20 18 21 25 24 24 23 23 23 24 25 27 27 27 26 26 26 27
26 23 21 19 16 13 14 16 17 17 19 19 19 19 18 18 18 18 18 18 18 18 18 18 18 19 20 22 24 24 24 23 24 24 25 25 27 27 28 27 28 27 28
22 18 16 14 15 15 17 17 18 20 20 20 19 19 19 18 19 18 18 18 18 18 18 18 19 20 21 23 24 24 24 25 25 25 26 26 28 27 27 28 29 28 27
18 17 16 17 18 17 17 18 19 20 19 19 19 19 19 20 19 18 19 19 19 19 18 19 20 20 22 22 24 25 25 26 26 26 26 25 26 28 29 29 26 25 25
18 18 17 17 16 17 17 18 19 18 18 18 18 18 18 19 19 20 20 19 18 19 20 20 21 21 22 22 23 23 24 25 25 25 24 26 27 27 26 25 25 25 26
17 16 16 17 17 18 18 18 18 17 17 17 17 18 19 19 19 19 18 20 21 22 22 22 22 22 22 23 24 24 23 23 24 23 25 25 23 24 24 23 24 25 25
18 18 17 17 17 17 17 18 18 17 17 16 18 18 20 20 19 18 18 21 23 23 23 23 23 24 24 23 23 23 22 22 23 28 23 22 23 23 23 23 24 24 25
Wind_Speed
16 16 18 18 19 17 20 22 22 19 19 16 15 11 10 8 6 6 7 8 7 6 6 6 6 5 6 6 6 3 7 12 9 3 4 3 4 4 3 4 5 8 9
16 14 18 20 21 23 21 21 22 23 19 17 9 6 9 5 5 6 6 7 7 6 6 6 6 6 6 6 7 7 3 5 11 4 3 2 2 3 5 3 4 6 11
23 20 18 22 22 23 24 25 24 24 18 16 14 11 10 7 5 5 5 5 6 6 6 6 6 6 5 5 5 5 6 5 5 9 4 2 1 4 3 3 4 6 11
16 14 20 20 23 23 21 21 23 23 19 19 16 19 13 11 7 8 6 7 6 5 5 6 6 6 5 5 4 4 4 3 5 2 6 5 2 1 4 3 3 10 6
15 18 20 21 17 19 23 21 21 20 19 18 16 16 12 7 8 7 10 7 5 5 5 5 6 6 4 4 4 3 4 3 3 3 2 3 4 3 1 4 7 9 7
17 12 10 15 16 15 18 21 23 20 20 18 15 15 15 13 12 9 11 8 5 4 4 5 6 5 5 3 3 3 3 3 3 2 2 2 1 1 2 2 5 8 6
15 16 18 19 20 23 22 20 21 20 18 17 15 14 14 13 13 13 11 9 7 4 6 5 5 4 4 3 4 3 3 2 2 1 1 0 1 1 1 2 3 4 4
12 16 19 20 21 22 22 21 22 20 18 17 15 12 12 12 10 10 10 8 7 5 5 6 5 5 4 4 3 2 2 2 1 1 1 2 3 2 3 2 2 5 3
13 13 13 18 20 20 20 22 21 19 18 17 14 12 11 12 11 9 8 7 5 5 6 7 7 5 5 4 3 2 2 2 2 3 2 3 3 3 3 4 4 3 5
11 12 14 17 15 17 17 17 19 21 17 15 14 13 12 11 12 11 11 10 8 7 9 9 8 8 8 6 6 5 5 5 5 5 5 5 5 6 5 4 4 5 7
7 10 14 16 18 17 18 18 18 19 17 15 15 16 14 14 14 15 12 13 12 12 13 12 13 12 11 10 10 10 9 9 8 8 8 7 7 8 7 6 4 5 4
10 11 13 16 17 18 17 18 17 18 16 16 17 17 17 17 19 17 16 15 17 15 15 15 16 15 14 13 12 11 10 10 9 8 9 9 8 8 7 7 8 8 6
12 12 13 15 16 17 17 17 17 18 17 19 21 19 19 20 19 18 17 16 17 16 16 16 15 13 12 12 11 10 9 8 7 6 7 7 7 9 8 8 8 7 8
17 14 14 15 15 15 17 17 17 17 19 20 21 21 19 19 19 17 17 17 15 16 15 14 13 11 10 9 8 7 7 7 6 5 6 6 6 8 9 9 8 7 10
18 19 19 17 17 17 17 17 16 18 19 22 22 20 19 18 18 18 16 15 15 14 13 12 11 10 9 8 7 6 6 6 7 8 8 8 9 11 10 9 10 10 9
17 14 14 15 16 18 19 18 17 18 19 22 21 19 19 18 17 16 15 15 13 12 12 11 9 9 7 8 9 8 7 8 8 11 11 11 11 10 12 14 14 12 11
28 25 23 22 19 19 20 21 20 19 20 21 19 19 18 18 16 14 14 13 12 10 10 9 8 8 8 10 10 10 7 7 8 8 9 11 8 12 12 15 15 13 13
30 26 25 20 19 16 18 20 20 20 21 20 19 17 17 17 14 14 13 11 8 9 7 7 7 7 7 10 11 10 7 6 8 9 11 11 13 14 15 13 14 14 14
25 24 22 22 21 21 20 22 20 19 20 19 18 16 15 15 13 12 10 7 7 6 6 4 7 8 9 10 10 10 8 8 10 11 12 11 12 16 18 16 15 15 15
26 26 23 23 22 20 21 23 20 20 19 17 16 14 14 14 12 9 8 5 5 5 5 6 6 7 7 8 9 11 8 11 12 12 11 12 14 16 17 15 15 15 15
27 25 25 24 22 20 21 22 20 19 17 16 15 14 12 12 10 8 6 4 4 3 5 5 7 6 4 7 11 13 10 10 12 10 12 12 17 18 18 19 13 14 16
28 26 25 22 18 18 21 19 19 16 16 15 14 12 11 9 8 7 4 3 3 3 5 6 6 5 7 10 11 14 14 13 11 13 12 14 17 19 19 17 17 20 18
26 24 26 23 18 17 19 20 15 16 15 14 12 10 9 8 6 4 3 2 2 3 5 5 6 9 9 10 13 14 14 15 13 11 14 20 18 17 14 15 18 17 13
26 26 26 23 20 18 18 18 15 14 13 12 10 7 7 6 4 2 1 1 3 5 5 6 8 10 11 12 12 12 14 14 13 15 15 14 14 14 14 13 12 11 10
25 24 24 22 20 19 18 15 13 12 12 10 8 6 4 3 1 1 3 3 5 5 8 8 8 10 11 11 14 15 11 12 13 19 7 10 12 12 12 12 11 11 11
24 23 22 22 18 17 15 12 10 10 10 7 4 3 2 1 1 3 6 7 7 8 10 11 10 9 12 15 17 18 19 20 21 10 10 12 11 12 12 11 12 11 13
Wind_Direction
235 202 194 185 175 176 170 168 166 161 152 153 151 150 158 153 147 157 152 141 135 135 138 133 124 102 88 72 49 64 41 29 15 75 54 38 25 24 29 31 34 26 5
228 223 193 187 186 182 178 171 172 169 169 160 148 142 153 154 148 157 143 140 141 143 146 140 132 114 103 76 56 48 55 37 27 67 71 38 341 3 20 27 21 13 358
231 224 208 192 187 183 180 178 174 173 167 150 127 111 101 102 132 159 149 153 150 146 142 135 124 112 105 92 80 62 59 52 41 48 97 72 10 329 330 355 2 348 351
240 226 205 203 193 187 178 174 169 167 161 159 156 160 166 166 185 172 159 152 153 146 140 133 123 118 112 101 92 83 74 69 43 41 47 70 104 36 333 336 329 341 350
223 226 210 201 194 177 173 168 161 160 161 165 165 166 165 154 149 143 147 151 143 144 144 134 123 120 115 112 104 87 80 69 64 40 31 51 57 78 95 303 323 339 330
240 231 196 172 174 164 160 158 159 163 163 166 171 174 169 160 153 151 158 158 152 154 149 134 127 128 124 124 111 100 84 80 78 59 40 39 27 11 38 316 309 311 311
216 203 186 178 171 167 162 157 158 162 164 166 168 169 168 165 164 163 162 163 163 175 179 156 142 129 126 129 124 108 87 83 62 55 14 295 277 196 202 229 291 303 311
202 200 181 171 166 162 158 156 159 158 164 166 166 163 157 156 154 155 156 163 165 158 157 155 136 125 122 125 124 94 75 85 52 5 310 300 280 232 228 240 271 316 292
175 170 163 156 154 154 156 156 156 158 162 161 153 153 148 150 149 138 130 132 126 135 131 131 120 104 99 101 106 81 52 41 24 1 349 317 328 309 282 258 231 239 300
162 150 151 146 139 142 144 146 152 157 156 149 149 146 142 134 128 122 118 118 113 105 107 100 93 83 74 70 72 60 47 48 34 32 21 8 353 352 344 315 281 241 247
152 139 134 130 132 132 138 140 142 142 141 139 136 132 126 118 112 108 106 105 99 97 93 92 88 81 72 64 70 66 55 59 50 41 36 24 10 0 355 349 330 300 246
135 125 119 121 123 125 127 130 131 132 133 129 124 119 115 109 107 105 103 100 95 87 90 87 84 80 73 67 67 65 56 52 40 27 28 18 3 1 357 349 334 315 301
140 127 122 120 121 121 120 120 120 121 120 119 116 111 110 109 108 103 99 95 94 89 84 83 82 78 73 69 65 65 57 51 44 29 17 0 354 342 338 335 328 326 322
155 144 135 127 122 120 119 116 113 116 116 112 112 112 111 109 107 102 98 97 95 92 86 80 78 73 72 63 56 50 38 23 7 355 343 330 326 321 317 316 312 310 315
163 161 151 141 132 126 120 116 115 115 116 111 111 111 109 105 103 101 98 94 87 84 82 78 68 59 57 39 35 31 15 357 342 337 329 319 311 307 307 308 314 312 310
164 155 142 138 140 135 129 128 125 115 113 113 115 114 112 108 105 101 96 90 84 78 73 64 59 48 33 18 11 5 358 348 342 332 328 327 319 319 317 312 306 299 310
161 164 160 154 148 144 138 132 127 120 116 117 118 116 112 106 101 99 93 87 79 74 65 57 44 29 13 6 1 352 359 343 338 338 335 334 323 321 314 311 310 301 294
170 166 154 148 142 136 129 124 124 122 120 118 115 115 111 106 101 94 89 82 71 62 54 41 25 13 360 354 350 348 5 359 344 333 327 325 323 322 319 309 305 296 288
155 156 149 144 137 139 132 126 124 122 119 120 117 115 112 106 100 92 87 79 68 56 39 23 11 356 342 345 344 342 345 337 327 319 319 315 314 315 315 308 305 303 300
146 143 135 131 135 137 130 128 132 127 125 124 120 115 112 109 102 98 88 71 62 47 22 352 355 340 332 334 339 334 330 319 313 309 312 311 313 314 315 311 310 304 298
136 131 134 141 141 137 132 131 132 129 129 123 118 111 108 105 103 99 90 79 62 22 2 344 332 329 330 325 327 325 319 309 304 308 310 305 311 314 312 312 309 293 295
131 128 128 129 132 133 129 129 126 131 125 120 115 111 108 104 109 103 88 71 61 8 342 334 328 327 325 323 322 318 314 313 316 311 305 300 300 310 314 314 310 312 321
128 127 126 126 126 126 129 125 130 126 122 117 114 113 113 107 95 89 71 42 0 336 324 318 318 319 317 317 314 316 315 315 312 299 295 305 310 307 309 311 311 317 315
123 122 122 122 119 115 113 119 124 122 119 119 120 117 99 101 87 86 79 322 311 309 309 312 305 310 315 313 308 304 299 298 297 293 292 297 310 313 307 308 302 303 298
117 116 116 114 111 109 108 111 115 122 124 114 101 96 104 99 89 340 284 287 281 263 287 292 294 304 298 291 295 304 306 304 301 308 321 315 313 305 302 303 298 295 299
109 107 107 109 110 109 111 114 112 105 104 107 121 141 147 146 308 319 318 314 301 308 310 307 303 300 301 311 308 312 309 305 304 318 313 310 303 298 297 298 303 306 306